Location: Holyhead Bay
(53.3667°N, 4.6667°W)
Time: 19:51:27
(UTC+00:00)

Cosmos 2369 Rocket - Pass Details

Date: 24 November 2020
Orbit: 829 x 852 km, 71.0° (Epoch: 16 January)

Event Time Altitude Azimuth Distance (km) Brightness Sun altitude
Rises 19:35:20 0° 326° (NNW) 3,430 5.9 -29.8°
Reaches altitude 10° 19:37:49 10° 324° (NW) 2,489 5.1 -30.2°
Enters shadow 19:43:22 63° 250° (WSW) 947 2.5 -31.0°
